Regional Weather Roundup
Issued by NWS

Home | Current Version | Previous Version | Text Only | Print | Product List | Glossary Off
Versions: 1 2 3 4 5 6 7 8 9 10 11 12 13 14 15 16 17 18 19 20 21 22 23 24 25 26 27 28 29 30 31 32 33 34 35 36 37 38 39 40 41 42 43 44 45 46 47 48 49 50

000
ASUS43 KLOT 240109
RWRIL

ILLINOIS REGIONAL WEATHER ROUNDUP
NATIONAL WEATHER SERVICE CHICAGO/ROMEOVILLE IL
800 PM CDT MON OCT 23 2017

NOTE: "FAIR" INDICATES FEW OR NO CLOUDS BELOW 12,000 FEET WITH NO
SIGNIFICANT WEATHER AND/OR OBSTRUCTIONS TO VISIBILITY.

* THESE STATIONS ARE NOT UNDER NWS QUALITY CONTROL. THEY ALSO MAY NOT
  REPORT WEATHER SUCH AS PRECIPITATION OR FOG.

ILZ001-002-007-009-015-016-024-240200-
NORTHWEST ILLINOIS

CITY           SKY/WX    TMP DP  RH WIND       PRES   REMARKS
MOLINE         CLOUDY    54  45  71 W14       29.75S
STERLING*      CLOUDY    52  48  86 W12         N/A
SAVANNA*       CLOUDY    53  47  80 W8        29.72F
$$

ILZ003-004-008-010-011-017-018-240200-
NORTH CENTRAL ILLINOIS

CITY           SKY/WX    TMP DP  RH WIND       PRES   REMARKS
ROCKFORD       LGT RAIN  52  46  80 W15       29.70R
FREEPORT*      DRIZZLE   50  44  79 NW9       29.71S
ROCHELLE*      LGT RAIN  52  47  84 NW13      29.70R
DE KALB*       CLOUDY    54  47  77 W13G21    29.67S
PERU*          DRIZZLE   52  47  82 W13       29.72S
$$

ILZ005-006-012>014-019>023-240200-
NORTHEAST ILLINOIS

CITY           SKY/WX    TMP DP  RH WIND       PRES   REMARKS
CHICAGO-OHARE  CLOUDY    52  45  77 SW7       29.65S
CHICAGO-MIDWAY CLOUDY    52  48  86 SW8       29.66S
AURORA         CLOUDY    52  47  83 W8        29.67F
LANSING*       CLOUDY    51  51 100 SW5       29.68S
JOLIET*        CLOUDY    52  49  91 SW3       29.69R
WAUKEGAN       CLOUDY    50  47  89 CALM      29.63F
DUPAGE AIRPORT CLOUDY    50  47  89 SW7       29.66R
KANKAKEE*      CLOUDY    50  49  98 SW3       29.70F
WHEELING       CLOUDY    52  47  83 SW6       29.66S
MORRIS*        LGT RAIN  51  47  86 SW6       29.68S
ROMEOVILLE*    CLOUDY    50  47  91 SW5       29.67F
NORTHERLY ISL    N/A     53  47  79 SW5         N/A
$$

LMZ740>746-240200-
SOUTHERN LAKE MICHIGAN

STATION/POSITION SKY/WX   TEMP    WIND        PRES    VSBY  WAVE
                          AIR SEA DIR/SP/G                  HT/PER
                          (F)     (DEG/KT/KT) (MB)    (MI)  (FT/S)
SOUTHERN BUOY              55 60  320/ 17/ 19 1002.8F         3/ 5
WILMETTE HARBOR            53 57  250/  6/ 10   N/A           2/ 5
HARRISON CRIB              54     270/  8/ 10   N/A
BURNHAM HARBOR             53     270/  6/ 10   N/A
CALUMET HARBOR             52     200/  4/  5 1004.2R
BURNS HARBOR               54     230/ 10/ 14 1005.1S
MICHIGAN CITY              54     270/ 18/ 19   N/A
MICHIGAN CITY 6N           54 57  280/ 14/ 17   N/A           5/ 6
ST. JOSEPH                 56 58  330/ 17/ 23 1003.8          6/ 6
$$

ILZ025>027-034>036-040-047-049-050-058-095>099-240200-
WEST-CENTRAL ILLINOIS

CITY           SKY/WX    TMP DP  RH WIND       PRES   REMARKS
QUINCY         CLOUDY    56  43  61 W16       29.83R
MACOMB*        CLOUDY    51  49  93 W7        29.80F
JACKSONVILLE*  CLOUDY    52  47  83 CALM      29.81F
PITTSFIELD*    PTCLDY    52  47  82 CALM      29.83F
$$

ILZ028>032-037-038-041>044-048-051>054-059>061-240200-
CENTRAL ILLINOIS

CITY           SKY/WX    TMP DP  RH WIND       PRES   REMARKS
PONTIAC        LGT RAIN  53  52  96 W9        29.72S
BLOOMINGTON    LGT RAIN  54  47  77 W15G23    29.75R
DECATUR        LGT RAIN  55  46  71 W9        29.76R
PEORIA         LGT RAIN  52  49  89 W5        29.76S
LACON*         LGT RAIN  53  48  83 W12       29.73R
LINCOLN*       RAIN      53  49  86 NW9G18    29.79R
SPRINGFIELD    LGT RAIN  53  49  86 NW9       29.80R
TAYLORVILLE    DRIZZLE   53  48  83 NW14G28   29.80R
$$

ILZ033-039-045-046-055>057-062-063-240200-
EAST-CENTRAL ILLINOIS

CITY           SKY/WX    TMP DP  RH WIND       PRES   REMARKS
CHAMPAIGN      CLOUDY    54  48  82 SW8       29.74S
DANVILLE*      CLOUDY    50  50  98 SW7       29.71R
RANTOUL*       CLOUDY    53  51  94 SW6       29.73S
MATTOON        CLOUDY    52  52 100 S6        29.73F
PARIS*         CLOUDY    51  50  99 SW8       29.75F
$$

ILZ079-100>102-240200-
SOUTHWEST ILLINOIS

CITY           SKY/WX    TMP DP  RH WIND       PRES   REMARKS
ALTON          CLOUDY    57  46  67 NW12G23   29.85R
BELLEVILLE     LGT RAIN  58  48  68 NW16      29.84R
CAHOKIA*       LGT RAIN  59  46  62 W9        29.86R
SPARTA*        CLOUDY    62  42  48 NW13G22   29.84R
$$

ILZ064>066-069>071-074>076-080>082-084>086-088>090-092>094-240200-
SOUTH-CENTRAL ILLINOIS

CITY           SKY/WX    TMP DP  RH WIND       PRES   REMARKS
CARBONDALE     CLOUDY    57  49  74 SW6       29.81R
CAIRO*         CLOUDY    60  49  67 S9        29.81F
EFFINGHAM*     CLOUDY    54  46  74 SW7       29.79R
MARION         CLOUDY    58  48  70 CALM      29.81S
MT. VERNON     CLOUDY    56  50  80 W3        29.80S
CENTRALIA*     CLOUDY    58  53  84 SW9       29.80R
SALEM*         LGT RAIN  58  51  77 SW6       29.80R
METROPOLIS*    MOCLDY    57  47  71 SE3       29.83F
$$

ILZ067-068-072-073-078-083-087-091-240200-
SOUTHEAST ILLINOIS

CITY           SKY/WX    TMP DP  RH WIND       PRES   REMARKS
LAWRENCEVILLE  LGT RAIN  52  32  46 S7        29.79S
FLORA*         CLOUDY    56  47  73 S7        29.79R
FAIRFIELD*     LGT RAIN  54  48  79 S5        29.79S
HARRISBURG*    CLOUDY    53  47  81 S3        29.81F
ROBINSON*      CLOUDY    50  48  93 S5        29.78F
CARMI*         MOCLDY    50  47  90 S6        29.81S
$$

ABBREVIATIONS USED IN REMARKS
   TC - TEMPERATURE IN CELSIUS
  WCI - WIND CHILL INDEX
   HX - HEAT INDEX
  VSB - VISIBILITY
$$




USA.gov is the U.S. government's official web portal to all federal, state and local government web resources and services.